Location: Boiro
(42.6475°N, 8.8834°W)
Time: 18:06:19
(UTC+01:00)

Transit 2A - Pass Details

Date: 07 December 2021
Orbit: 591 x 967 km, 66.7° (Epoch: 20 January)

Event Time Altitude Azimuth Distance (km) Brightness Sun altitude
Rises 08:19:47 0° 334° (NNW) 3,658 9.0 -6.1°
Reaches altitude 10° 08:22:45 10° 346° (NNW) 2,714 8.5 -5.6°
Maximum altitude 08:28:13 29° 44° (NE) 1,692 8.0 -4.7°
Drops below altitude 10° 08:33:31 10° 103° (ESE) 2,629 10.4 -3.8°
Sets 08:36:20 0° 114° (ESE) 3,524 12.5 -3.4°
